Weather History for Clinton, OK

Change the Weather History Date:

Thursday, February 7, 2013

  Actual Average (KCSM) Record (KCSM)
Temperature  
Mean Temperature 46 °F -  
Max Temperature 59 °F 49 °F 73 °F (2009)
Min Temperature 33 °F 29 °F 9 °F (2014)
Degree Days  
Heating Degree Days 19    
Moisture  
Dew Point 41 °F    
Average Humidity 69    
Maximum Humidity 94    
Minimum Humidity 29    
Precipitation  
Precipitation 0.00 in - - ()
Sea Level Pressure  
Sea Level Pressure 29.94 in    
Wind  
Wind Speed 17 mph (NNE)    
Max Wind Speed 34 mph    
Max Gust Speed 46 mph    
Visibility 10 miles    
Events Rain    
Averages and records for this station are not official NWS values.
T = Trace of Precipitation, MM = Missing Value Source: NWS Daily Summary

Daily Weather History Graph

Daily Weather History Graph

Search for Another Location

Airport:

Trip Planner

Search our weather history database for the weather conditions in past years. The results will help you decide how hot, cold, wet, or windy it might be!

Date:

Astronomy

Feb. 07, 2013 Rise Set
Actual Time 7:30 AM CST 6:10 PM CST
Civil Twilight 7:03 AM CST 6:36 PM CST
Nautical Twilight 6:33 AM CST 7:06 PM CST
Astronomical Twilight 6:03 AM CST 7:36 PM CST
Moon 5:07 AM CST (2/7) 3:39 PM CST (2/7)
Length of Visible Light 11h 32m
Length of Day
10h 39m
Waning Crescent, 9% of the Moon is Illuminated
Feb 7
Waning Crescent
Feb 10
New
Feb 17
First Quarter
Feb 25
Full
Mar 4
Last Quarter

Hourly Weather History & Observations

Time (CST) Temp. Windchill Dew Point Humidity Pressure Visibility Wind Dir Wind Speed Gust Speed Precip Events Conditions
12:15 AM 57.2 °F - 51.8 °F 82% 29.80 in 7.0 mi SSE 21.9 mph 28.8 mph N/A   Overcast
12:35 AM 55.4 °F - 51.8 °F 88% 29.80 in 7.0 mi SSE 23.0 mph 27.6 mph N/A   Overcast
12:55 AM 55.4 °F - 51.8 °F 88% 29.80 in 7.0 mi SSE 20.7 mph 26.5 mph N/A   Overcast
1:15 AM 55.4 °F - 51.8 °F 88% 29.79 in 7.0 mi SSE 20.7 mph 29.9 mph N/A   Overcast
1:35 AM 55.4 °F - 51.8 °F 88% 29.79 in 7.0 mi SSE 18.4 mph - N/A   Overcast
1:55 AM 57.2 °F - 53.6 °F 88% 29.78 in 7.0 mi SSE 18.4 mph - N/A   Overcast
2:15 AM 57.2 °F - 53.6 °F 88% 29.77 in 7.0 mi SSE 18.4 mph - N/A   Overcast
2:35 AM 57.2 °F - 53.6 °F 88% 29.78 in 7.0 mi SSE 20.7 mph - N/A   Overcast
2:55 AM 57.2 °F - 53.6 °F 88% 29.77 in 10.0 mi SSE 15.0 mph - N/A   Overcast
3:15 AM 57.2 °F - 53.6 °F 88% 29.77 in 10.0 mi SSE 16.1 mph - N/A   Overcast
3:35 AM 59.0 °F - 53.6 °F 82% 29.77 in 10.0 mi SSE 16.1 mph 19.6 mph N/A   Overcast
3:55 AM 59.0 °F - 53.6 °F 82% 29.77 in 10.0 mi South 15.0 mph 19.6 mph N/A   Overcast
4:15 AM 59.0 °F - 53.6 °F 82% 29.76 in 10.0 mi South 17.3 mph - N/A   Overcast
4:35 AM 59.0 °F - 53.6 °F 82% 29.76 in 10.0 mi South 15.0 mph 20.7 mph N/A   Overcast
4:55 AM 57.2 °F - 51.8 °F 82% 29.75 in 10.0 mi South 17.3 mph 24.2 mph N/A   Mostly Cloudy
5:15 AM 57.2 °F - 51.8 °F 82% 29.75 in 10.0 mi South 15.0 mph - N/A   Mostly Cloudy
5:35 AM 57.2 °F - 51.8 °F 82% 29.75 in 10.0 mi SSE 12.7 mph - N/A   Mostly Cloudy
5:55 AM 57.2 °F - 51.8 °F 82% 29.76 in 10.0 mi SSE 12.7 mph - N/A   Overcast
6:15 AM 57.2 °F - 51.8 °F 82% 29.76 in 10.0 mi South 13.8 mph 20.7 mph N/A   Overcast
6:35 AM 57.2 °F - 51.8 °F 82% 29.78 in 10.0 mi SW 9.2 mph - N/A   Overcast
7:15 AM 55.4 °F - 51.8 °F 88% 29.81 in 10.0 mi West 4.6 mph - N/A   Overcast
7:35 AM 55.4 °F - 51.8 °F 88% 29.81 in 10.0 mi WNW 4.6 mph - N/A   Overcast
7:55 AM 55.4 °F - 51.8 °F 88% 29.82 in 10.0 mi North 3.5 mph - N/A   Overcast
8:15 AM 53.6 °F - 51.8 °F 94% 29.82 in 10.0 mi NNE 4.6 mph - N/A   Overcast
8:35 AM 53.6 °F - 50.0 °F 88% 29.83 in 10.0 mi NNE 6.9 mph - N/A   Scattered Clouds
8:55 AM 55.4 °F - 51.8 °F 88% 29.84 in 10.0 mi NNE 6.9 mph - N/A   Scattered Clouds
9:15 AM 59.0 °F - 51.8 °F 77% 29.85 in 10.0 mi North 8.1 mph - N/A   Scattered Clouds
9:35 AM 59.0 °F - 51.8 °F 77% 29.86 in 10.0 mi North 18.4 mph - N/A   Overcast
10:15 AM 55.4 °F - 46.4 °F 72% 29.90 in 10.0 mi North 29.9 mph 36.8 mph N/A   Overcast
10:35 AM 55.4 °F - 44.6 °F 67% 29.92 in 10.0 mi North 31.1 mph 46.0 mph N/A   Mostly Cloudy
10:55 AM 55.4 °F - 44.6 °F 67% 29.92 in 10.0 mi North 31.1 mph 38.0 mph N/A   Mostly Cloudy
11:15 AM 55.4 °F - 42.8 °F 63% 29.93 in 10.0 mi North 29.9 mph 39.1 mph N/A   Mostly Cloudy
11:35 AM 55.4 °F - 42.8 °F 63% 29.94 in 10.0 mi North 28.8 mph 41.4 mph N/A   Mostly Cloudy
11:55 AM 55.4 °F - 42.8 °F 63% 29.94 in 10.0 mi North 25.3 mph 34.5 mph N/A   Scattered Clouds
12:15 PM 59.0 °F - 42.8 °F 55% 29.94 in 10.0 mi NNE 34.5 mph 40.3 mph N/A   Clear
12:35 PM 57.2 °F - 42.8 °F 59% 29.95 in 10.0 mi North 28.8 mph - N/A   Clear
12:55 PM 57.2 °F - 42.8 °F 59% 29.96 in 10.0 mi North 25.3 mph 33.4 mph N/A   Scattered Clouds
1:15 PM 55.4 °F - 41.0 °F 58% 29.97 in 10.0 mi North 24.2 mph 29.9 mph N/A   Scattered Clouds
1:35 PM 53.6 °F - 37.4 °F 54% 29.98 in 10.0 mi NNW 24.2 mph 29.9 mph N/A   Mostly Cloudy
1:55 PM 50.0 °F - 37.4 °F 62% 30.00 in 10.0 mi North 19.6 mph 33.4 mph N/A Rain Light Rain
2:15 PM 51.8 °F - 37.4 °F 58% 30.01 in 10.0 mi North 20.7 mph 27.6 mph N/A   Scattered Clouds
2:35 PM 53.6 °F - 37.4 °F 54% 30.01 in 10.0 mi North 21.9 mph 28.8 mph N/A   Clear
2:55 PM 53.6 °F - 37.4 °F 54% 30.01 in 10.0 mi North 25.3 mph - N/A   Clear
3:15 PM 55.4 °F - 35.6 °F 47% 30.02 in 10.0 mi North 23.0 mph - N/A   Clear
3:35 PM 53.6 °F - 32.0 °F 44% 30.03 in 10.0 mi North 21.9 mph - N/A   Clear
4:15 PM 55.4 °F - 23.0 °F 29% 30.04 in 10.0 mi North 21.9 mph - N/A   Clear
4:35 PM 55.4 °F - 23.0 °F 29% 30.04 in 10.0 mi North 21.9 mph 29.9 mph N/A   Clear
4:55 PM 55.4 °F - 23.0 °F 29% 30.04 in 10.0 mi North 17.3 mph - N/A   Clear
5:15 PM 55.4 °F - 23.0 °F 29% 30.05 in 10.0 mi NNE 18.4 mph - N/A   Clear
5:35 PM 55.4 °F - 23.0 °F 29% 30.06 in 10.0 mi North 21.9 mph 26.5 mph N/A   Clear
5:55 PM 53.6 °F - 26.6 °F 35% 30.07 in 10.0 mi North 13.8 mph - N/A   Clear
6:15 PM 51.8 °F - 28.4 °F 41% 30.08 in 10.0 mi NNE 11.5 mph - N/A   Clear
6:35 PM 50.0 °F - 28.4 °F 43% 30.09 in 10.0 mi North 9.2 mph - N/A   Clear
6:55 PM 48.2 °F - 30.2 °F 50% 30.10 in 10.0 mi North 9.2 mph - N/A   Clear
7:15 PM 46.4 °F 42.4 °F 30.2 °F 53% 30.11 in 10.0 mi North 8.1 mph - N/A   Clear
7:35 PM 44.6 °F 40.7 °F 30.2 °F 57% 30.12 in 10.0 mi North 6.9 mph - N/A   Clear
8:15 PM 41.0 °F 36.4 °F 30.2 °F 65% 30.13 in 10.0 mi North 6.9 mph - N/A   Clear
8:35 PM 41.0 °F 38.0 °F 30.2 °F 65% 30.15 in 10.0 mi North 4.6 mph - N/A   Clear
8:55 PM 41.0 °F 36.4 °F 30.2 °F 65% 30.15 in 10.0 mi North 6.9 mph - N/A   Clear
9:15 PM 37.4 °F 32.8 °F 30.2 °F 75% 30.17 in 10.0 mi NNW 5.8 mph - N/A   Clear
9:35 PM 37.4 °F 33.8 °F 30.2 °F 75% 30.17 in 10.0 mi NNW 4.6 mph - N/A   Clear
9:55 PM 37.4 °F 34.9 °F 28.4 °F 70% 30.18 in 10.0 mi North 3.5 mph - N/A   Clear
10:15 PM 37.4 °F 33.8 °F 28.4 °F 70% 30.19 in 10.0 mi North 4.6 mph - N/A   Clear
10:35 PM 35.6 °F 32.8 °F 28.4 °F 75% 30.19 in 10.0 mi North 3.5 mph - N/A   Clear
11:15 PM 35.6 °F 31.7 °F 28.4 °F 75% 30.20 in 10.0 mi NW 4.6 mph - N/A   Clear
11:35 PM 33.8 °F 29.6 °F 26.6 °F 75% 30.20 in 10.0 mi NW 4.6 mph - N/A   Clear
11:55 PM 33.8 °F - 26.6 °F 75% 30.21 in 10.0 mi Calm Calm - N/A   Clear